Time,TemperatureF,DewpointF,PressureIn,WindDirection,WindDirectionDegrees,WindSpeedMPH,WindSpeedGustMPH,Humidity,HourlyPrecipIn,Conditions,Clouds,dailyrainin,SolarRadiationWatts/m^2,SoftwareType,DateUTC
2017-02-19 00:09:00,60.6,35.0,29.69,West,261,0.0,2.0,39,0.00,,,0.00,0,weatherlink.com 1.10,2017-02-19 05:09:00,
2017-02-19 00:24:00,60.8,35.0,29.70,SW,221,0.0,3.0,39,0.00,,,0.00,0,weatherlink.com 1.10,2017-02-19 05:24:00,
2017-02-19 00:39:00,60.2,36.0,29.70,South,180,0.0,2.0,40,0.00,,,0.00,0,weatherlink.com 1.10,2017-02-19 05:39:00,
2017-02-19 00:54:00,59.4,36.0,29.70,WSW,252,1.0,7.0,42,0.00,,,0.00,0,weatherlink.com 1.10,2017-02-19 05:54:00,
2017-02-19 01:09:00,59.8,36.0,29.70,WSW,252,0.0,1.0,41,0.00,,,0.00,0,weatherlink.com 1.10,2017-02-19 06:09:00,
2017-02-19 01:24:00,59.4,36.0,29.70,WSW,252,0.0,1.0,42,0.00,,,0.00,0,weatherlink.com 1.10,2017-02-19 06:24:00,
2017-02-19 01:39:00,59.3,37.0,29.70,SSW,210,1.0,3.0,44,0.00,,,0.00,0,weatherlink.com 1.10,2017-02-19 06:39:00,
2017-02-19 01:54:00,59.3,38.0,29.70,SSW,204,0.0,3.0,45,0.00,,,0.00,0,weatherlink.com 1.10,2017-02-19 06:54:00,
2017-02-19 02:09:00,59.3,38.0,29.70,SSW,205,0.0,2.0,46,0.00,,,0.00,0,weatherlink.com 1.10,2017-02-19 07:09:00,
2017-02-19 02:24:00,59.0,38.0,29.71,SSW,205,0.0,1.0,46,0.00,,,0.00,0,weatherlink.com 1.10,2017-02-19 07:24:00,
2017-02-19 02:39:00,58.7,38.0,29.70,SSW,205,0.0,0.0,47,0.00,,,0.00,0,weatherlink.com 1.10,2017-02-19 07:39:00,
2017-02-19 03:09:00,57.8,39.0,29.70,WSW,254,0.0,5.0,50,0.00,,,0.00,0,weatherlink.com 1.10,2017-02-19 08:09:00,
2017-02-19 03:24:00,58.3,40.0,29.70,WSW,251,0.0,4.0,51,0.00,,,0.00,0,weatherlink.com 1.10,2017-02-19 08:24:00,
2017-02-19 03:39:00,58.5,41.0,29.70,WSW,246,0.0,3.0,52,0.00,,,0.00,0,weatherlink.com 1.10,2017-02-19 08:39:00,
2017-02-19 03:54:00,58.6,41.0,29.70,NNW,335,0.0,4.0,53,0.00,,,0.00,0,weatherlink.com 1.10,2017-02-19 08:54:00,
2017-02-19 04:09:00,59.1,43.0,29.71,NW,317,3.0,9.0,55,0.00,,,0.00,0,weatherlink.com 1.10,2017-02-19 09:09:00,
2017-02-19 04:24:00,59.1,43.0,29.71,West,273,1.0,3.0,55,0.00,,,0.00,0,weatherlink.com 1.10,2017-02-19 09:24:00,
2017-02-19 04:39:00,59.1,43.0,29.72,WSW,238,0.0,5.0,56,0.00,,,0.00,0,weatherlink.com 1.10,2017-02-19 09:39:00,
2017-02-19 04:54:00,58.8,43.0,29.73,West,262,1.0,4.0,56,0.00,,,0.00,0,weatherlink.com 1.10,2017-02-19 09:54:00,
2017-02-19 05:09:00,58.5,43.0,29.73,SW,227,0.0,3.0,57,0.00,,,0.00,0,weatherlink.com 1.10,2017-02-19 10:09:00,
2017-02-19 05:24:00,58.1,43.0,29.73,SW,215,1.0,4.0,57,0.00,,,0.00,0,weatherlink.com 1.10,2017-02-19 10:24:00,
2017-02-19 05:39:00,58.1,43.0,29.74,WSW,254,2.0,7.0,57,0.00,,,0.00,0,weatherlink.com 1.10,2017-02-19 10:39:00,
2017-02-19 05:54:00,57.9,43.0,29.74,WNW,297,3.0,5.0,58,0.00,,,0.00,0,weatherlink.com 1.10,2017-02-19 10:54:00,
2017-02-19 06:09:00,58.0,43.0,29.74,WSW,246,4.0,5.0,58,0.00,,,0.00,0,weatherlink.com 1.10,2017-02-19 11:09:00,
2017-02-19 06:24:00,57.7,43.0,29.74,SSW,202,3.0,6.0,59,0.00,,,0.00,0,weatherlink.com 1.10,2017-02-19 11:24:00,
2017-02-19 06:39:00,57.2,43.0,29.74,SSW,210,1.0,5.0,60,0.00,,,0.00,0,weatherlink.com 1.10,2017-02-19 11:39:00,
2017-02-19 06:54:00,57.2,44.0,29.75,SW,231,0.0,6.0,61,0.00,,,0.00,0,weatherlink.com 1.10,2017-02-19 11:54:00,
2017-02-19 07:09:00,57.1,44.0,29.75,WSW,253,0.0,7.0,61,0.00,,,0.00,0,weatherlink.com 1.10,2017-02-19 12:09:00,
2017-02-19 07:24:00,56.9,44.0,29.76,West,259,0.0,8.0,62,0.00,,,0.00,11,weatherlink.com 1.10,2017-02-19 12:24:00,
2017-02-19 07:39:00,56.9,44.0,29.76,WSW,252,0.0,6.0,62,0.00,,,0.00,14,weatherlink.com 1.10,2017-02-19 12:39:00,
2017-02-19 07:54:00,56.9,44.0,29.77,WSW,250,0.0,7.0,62,0.00,,,0.00,14,weatherlink.com 1.10,2017-02-19 12:54:00,
2017-02-19 08:09:00,56.8,44.0,29.78,WSW,249,1.0,6.0,62,0.00,,,0.00,21,weatherlink.com 1.10,2017-02-19 13:09:00,
2017-02-19 08:24:00,56.8,44.0,29.79,West,261,2.0,6.0,62,0.00,,,0.00,37,weatherlink.com 1.10,2017-02-19 13:24:00,
2017-02-19 08:39:00,57.2,44.0,29.79,West,265,4.0,9.0,62,0.00,,,0.00,47,weatherlink.com 1.10,2017-02-19 13:39:00,
2017-02-19 08:54:00,57.3,44.0,29.79,WNW,293,3.0,12.0,62,0.00,,,0.00,56,weatherlink.com 1.10,2017-02-19 13:54:00,
2017-02-19 09:10:00,57.4,44.0,29.80,WSW,255,2.0,9.0,62,0.00,,,0.00,86,weatherlink.com 1.10,2017-02-19 14:10:00,
2017-02-19 09:25:00,57.7,44.0,29.80,West,273,2.0,7.0,61,0.00,,,0.00,130,weatherlink.com 1.10,2017-02-19 14:25:00,
2017-02-19 09:40:00,58.3,44.0,29.81,SE,124,3.0,8.0,60,0.00,,,0.00,135,weatherlink.com 1.10,2017-02-19 14:40:00,
2017-02-19 09:55:00,59.3,45.0,29.81,WSW,244,0.0,11.0,59,0.00,,,0.00,223,weatherlink.com 1.10,2017-02-19 14:55:00,
2017-02-19 10:10:00,60.5,45.0,29.80,West,279,1.0,6.0,58,0.00,,,0.00,271,weatherlink.com 1.10,2017-02-19 15:10:00,
2017-02-19 10:25:00,60.5,45.0,29.81,ESE,102,4.0,9.0,57,0.00,,,0.00,127,weatherlink.com 1.10,2017-02-19 15:25:00,
2017-02-19 10:40:00,60.5,45.0,29.80,WSW,241,3.0,11.0,57,0.00,,,0.00,125,weatherlink.com 1.10,2017-02-19 15:40:00,
2017-02-19 10:55:00,61.2,45.0,29.81,WNW,300,2.0,11.0,56,0.00,,,0.00,274,weatherlink.com 1.10,2017-02-19 15:55:00,
2017-02-19 11:10:00,62.2,46.0,29.82,WNW,292,4.0,9.0,55,0.00,,,0.00,541,weatherlink.com 1.10,2017-02-19 16:10:00,
2017-02-19 11:25:00,62.9,46.0,29.82,West,277,3.0,14.0,54,0.00,,,0.00,348,weatherlink.com 1.10,2017-02-19 16:25:00,
2017-02-19 11:40:00,63.2,46.0,29.82,SW,217,2.0,9.0,53,0.00,,,0.00,292,weatherlink.com 1.10,2017-02-19 16:40:00,
2017-02-19 11:55:00,63.8,45.0,29.82,WSW,238,4.0,7.0,51,0.00,,,0.00,283,weatherlink.com 1.10,2017-02-19 16:55:00,
2017-02-19 12:10:00,63.5,44.0,29.80,WSW,255,3.0,10.0,50,0.00,,,0.00,378,weatherlink.com 1.10,2017-02-19 17:10:00,
2017-02-19 12:25:00,64.6,45.0,29.80,WSW,248,5.0,8.0,49,0.00,,,0.00,633,weatherlink.com 1.10,2017-02-19 17:25:00,